Caldwell, NJ

10:29 PM EDT on May 27, 2018 (GMT -0400)
Essex County

Weather History for KCDW - December, 2014

Change the Weather History Date:

Monday, December 29, 2014

  Actual Average Record
Temperature  
Mean Temperature 34 °F -  
Max Temperature 42 °F 41 °F 64 °F (1982)
Min Temperature 27 °F 22 °F -2 °F (1950)
Degree Days  
Heating Degree Days 30    
Moisture  
Dew Point 20 °F    
Average Humidity 55    
Maximum Humidity 79    
Minimum Humidity 37    
Precipitation  
Precipitation 0.00 in - - ()
Sea Level Pressure  
Sea Level Pressure 30.21 in    
Wind  
Wind Speed 4 mph (NW)    
Max Wind Speed 8 mph    
Max Gust Speed -    
Visibility 10 miles    
Events      
Averages and records for this station are not official NWS values.
T = Trace of Precipitation, MM = Missing Value Source: NWS Daily Summary

Daily Weather History Graph

Daily Weather History Graph

Search for Another Location

Airport or City:

Astronomy

Dec. 29, 2014 Rise Set
Actual Time 7:21 AM EST 4:37 PM EST
Civil Twilight 6:50 AM EST 5:08 PM EST
Nautical Twilight 6:15 AM EST 5:42 PM EST
Astronomical Twilight 5:42 AM EST 6:16 PM EST
Moon 12:13 PM EST (12/29) 12:33 AM EST (12/29)
Length of Visible Light 10h 18m
Length of Day
9h 16m
First Quarter, 60% of the Moon is Illuminated
Dec 29
First Quarter
Jan 4
Full
Jan 13
Last Quarter
Jan 20
New
Jan 26
First Quarter

Hourly Weather History & Observations

Time (EST) Temp. Windchill Dew Point Humidity Pressure Visibility Wind Dir Wind Speed Gust Speed Precip Events Conditions
12:53 AM 39.0 °F 34.8 °F 27.0 °F 62% 30.12 in 10.0 mi NNW 5.8 mph - N/A   Clear
1:53 AM 37.9 °F 33.5 °F 23.0 °F 55% 30.14 in 10.0 mi Variable 5.8 mph - N/A   Clear
2:53 AM 37.9 °F 33.5 °F 21.9 °F 53% 30.16 in 10.0 mi NW 5.8 mph - N/A   Clear
3:53 AM 37.0 °F 34.5 °F 21.9 °F 54% 30.16 in 10.0 mi WNW 3.5 mph - N/A   Clear
4:53 AM 35.1 °F 32.2 °F 21.9 °F 59% 30.16 in 10.0 mi NNW 3.5 mph - N/A   Clear
5:53 AM 32.0 °F - 23.0 °F 69% 30.17 in 10.0 mi Calm Calm - N/A   Clear
6:53 AM 30.0 °F - 24.1 °F 79% 30.21 in 10.0 mi Calm Calm - N/A   Clear
7:53 AM 30.9 °F - 24.1 °F 76% 30.18 in 10.0 mi Calm Calm - N/A   Clear
8:53 AM 30.9 °F - 25.0 °F 79% 30.24 in 10.0 mi Calm Calm - N/A   Clear
9:53 AM 37.9 °F - 21.0 °F 51% 30.23 in 10.0 mi Calm Calm - N/A   Clear
10:53 AM 41.0 °F 36.4 °F 19.0 °F 41% 30.21 in 10.0 mi Variable 6.9 mph - N/A   Clear
11:53 AM 41.0 °F 35.8 °F 17.1 °F 38% 30.19 in 10.0 mi NW 8.1 mph - N/A   Clear
12:53 PM 41.0 °F 36.4 °F 17.1 °F 38% 30.18 in 10.0 mi WNW 6.9 mph - N/A   Clear
1:53 PM 42.1 °F 37.1 °F 18.0 °F 38% 30.17 in 10.0 mi North 8.1 mph - N/A   Clear
2:53 PM 42.1 °F 37.1 °F 17.1 °F 37% 30.18 in 10.0 mi NW 8.1 mph - N/A   Clear
3:53 PM 39.9 °F - 17.1 °F 40% 30.19 in 10.0 mi Calm Calm - N/A   Clear
4:53 PM 39.0 °F 33.4 °F 18.0 °F 43% 30.21 in 10.0 mi North 8.1 mph - N/A   Clear
5:53 PM 37.0 °F 33.3 °F 18.0 °F 46% 30.23 in 10.0 mi NNW 4.6 mph - N/A   Clear
6:53 PM 35.1 °F 32.2 °F 18.0 °F 50% 30.24 in 10.0 mi Variable 3.5 mph - N/A   Clear
7:53 PM 34.0 °F - 17.1 °F 50% 30.26 in 10.0 mi Calm Calm - N/A   Clear
8:53 PM 32.0 °F - 17.1 °F 54% 30.27 in 10.0 mi Calm Calm - N/A   Clear
9:53 PM 30.0 °F - 18.0 °F 61% 30.29 in 10.0 mi Calm Calm - N/A   Clear
10:53 PM 27.0 °F - 19.0 °F 72% 30.29 in 10.0 mi Calm Calm - N/A   Clear
11:53 PM 27.0 °F - 19.9 °F 75% 30.30 in 10.0 mi Calm Calm - N/A   Mostly Cloudy